Regional Weather Roundup
Issued by NWS

Home | Current Version | Previous Version | Text Only | Print | Product List | Glossary Off
Versions: 1 2 3 4 5 6 7 8 9 10 11 12 13 14 15 16 17 18 19 20 21 22 23 24 25 26 27 28 29 30 31 32 33 34 35 36 37 38 39 40 41 42 43 44 45 46 47 48 49 50

971
ASUS45 KTFX 302010
RWRMT
MONTANA REGIONAL WEATHER ROUNDUP
NATIONAL WEATHER SERVICE GREAT FALLS MT
200 PM MDT SAT APR 30 2016

NOTE: "FAIR" INDICATES FEW OR NO CLOUDS BELOW 12000 FEET WITH NO
SIGNIFICANT WEATHER AND/OR OBSTRUCTIONS TO VISIBILITY.

MTZ001>007-043-302100-
WEST OF THE DIVIDE

CITY           SKY/WX    TMP DP  RH WIND       PRES   REMARKS
KALISPELL      MOSUNNY   61  32  33 NE13      30.18S
MISSOULA       CLOUDY    51  41  68 VRB6      30.22F
BUTTE          CLOUDY    45  30  55 SE3       30.16S
MULLAN PASS    CLOUDY    43  32  65 VRB3      30.22R
ANACONDA         N/A     48  36  61 N12       30.16F
DEER LODGE       N/A     48  34  57 N7G17     30.18S
EUREKA           N/A     61  36  39 W3        30.20F
HAMILTON         N/A     46  37  71 E3        30.21S
LIBBY            N/A     63  34  34 W3        30.19F
PLAINS           N/A     57  41  55 CALM      30.21F
$$

MTZ008-052>055-302100-
SOUTHWEST MONTANA

CITY           SKY/WX    TMP DP  RH WIND       PRES   REMARKS
BOZEMAN        CLOUDY    48  34  58 CALM      30.17R
DILLON         CLOUDY    49  30  48 NE13      30.11S
ENNIS          CLOUDY    50  32  50 N21G35    30.16R
THREE FORKS      N/A     50  28  42 N10       30.14R
TWIN BRIDGES     N/A     53  28  38 N23       30.09S
$$

MTZ009-010-012-014-046-048-049-054-302100-
EAST SLOPES AND CENTRAL MONTANA

CITY           SKY/WX    TMP DP  RH WIND       PRES   REMARKS
CUT BANK       CLOUDY    52  32  46 E8        30.25S
GREAT FALLS    CLOUDY    52  35  52 MISG      30.22R
HELENA         CLOUDY    52  35  52 N15       30.19R
CHOTEAU          N/A     52  37  58 NE12      30.24S
CONRAD           N/A     50  43  77 N8        30.25S
$$

MTZ011-013-016-021-045-047-050-051-302100-
NORTH CENTRAL MONTANA

CITY           SKY/WX    TMP DP  RH WIND       PRES   REMARKS
HAVRE          CLOUDY    57  39  51 NE7       30.25S
LEWISTOWN      CLOUDY    50  34  54 SE8       30.23S
N BAR RANCH    CLOUDY    46  32  57 E9        30.26R
CHINOOK          N/A     57  32  38 E8        30.25S
$$

MTZ017>020-022>027-061-062-302100-
NORTHEAST MONTANA

CITY           SKY/WX    TMP DP  RH WIND       PRES   REMARKS
GLASGOW        SUNNY     59  29  31 SE8       30.25S
JORDAN           N/A     57  31  37 SE12      30.22S
SIDNEY         SUNNY     61  30  31 NE13G24   30.24S
WOLF POINT     SUNNY     63  31  30 E15       30.25S
PLENTYWOOD       N/A     59  27  29 E17       30.27S
POPLAR           N/A     61  27  27 NE14G21   30.25S
SCOBEY           N/A     61  26  26 NE14      30.24S
$$

MTZ028>42-056>058-302100-
SOUTHCENTRAL AND SOUTHEAST MONTANA

CITY           SKY/WX    TMP DP  RH WIND       PRES   REMARKS
BAKER          CLOUDY    57  30  35 E15       30.20S
BILLINGS       CLOUDY    50  34  54 NE12      30.20S
LIVINGSTON     CLOUDY    47  35  63 NE17      30.18S
MILES CITY     CLOUDY    58  30  34 E9G18     30.20R
EKALAKA          N/A     53  30  41 E13       30.15R
FORSYTH          N/A     54  34  47 E7        30.21R
LAUREL           N/A     50  30  46 NE6       30.17S
ROUNDUP          N/A     51  32  48 NE7       30.12S
$$

REGIONAL REPORTS...DAKOTAS

CITY           SKY/WX    TMP DP  RH WIND       PRES   REMARKS
WILLISTON      SUNNY     62  29  28 E12       30.25F
MINOT          MOSUNNY   66  28  24 E14G24    30.24S
DICKINSON      CLOUDY    54  30  40 NE20      30.19S
BEACH          PTSUNNY   55  27  33 NE16      30.24S
CROSBY           N/A     61  25  25 E15G24    30.29S
WATFORD CITY     N/A     59  28  31 E12G26    30.25S
BISMARCK       SUNNY     60  29  30 E23G32    30.19S
GRAND FORKS    MOSUNNY   61  28  28 NE22G29   30.21F
FARGO          CLOUDY    64  27  24 E17G28    30.14F
BUFFALO SD       N/A     54  32  43 E17G25    30.09S
RAPID CITY     CLOUDY    48  36  63 N20       30.09R
$$

REGIONAL REPORTS...WYOMING/IDAHO/WASHINGTON

CITY           SKY/WX    TMP DP  RH WIND       PRES   REMARKS
GILLETTE       CLOUDY    44  33  65 NE14      30.14S
SHERIDAN       CLOUDY    46  35  65 CALM      30.19S
BUFFALO WY       N/A    N/A N/A N/A MISG      30.19R
CODY           PTSUNNY   45  36  70 N16G25    30.14R
YELLOWSTONE LA   N/A     40  21  46 MISG      30.11R
IDAHO FALLS    PTSUNNY   56  31  38 NE14      30.01F
SALMON         CLOUDY    52  30  43 N3        30.12S
BOISE          SUNNY     67  37  33 NW21G28   30.01F
SPOKANE        CLOUDY    56  42  59 VRB3      30.23S
$$

REGIONAL REPORTS...ALBERTA

CITY           SKY/WX    TMP DP  RH WIND       PRES   REMARKS
EDMONTON       CLOUDY    59  34  38 W10       30.22R
CALGARY        CLOUDY    52  30  43 CALM      30.27R
LETHBRIDGE     PTSUNNY   55  36  47 S12       30.25S
WATERTON GATE    N/A     52  30  43 NE10        N/A
CARDSTON         N/A     54  32  43 SE3         N/A
MILK RIVER       N/A     55  34  44 SE2         N/A
ONEFOUR          N/A     54  34  47 SE10G17     N/A
$$

REGIONAL REPORTS...SASKATCHEWAN

CITY           SKY/WX    TMP DP  RH WIND       PRES   REMARKS
SWIFT CURRENT  MOSUNNY   61  28  29 SE12G21   30.26F
REGINA         MOSUNNY   63  23  22 SE10G20   30.30S
SASKATOON      MOSUNNY   66  23  19 SE10      30.31S
CYPRESS HILLS    N/A     52  30  43 SE7         N/A
VAL MARIE        N/A     59  27  29 SE10        N/A
ROCKGLEN         N/A     61  28  29 E10G17      N/A
$$




USA.gov is the U.S. government's official web portal to all federal, state and local government web resources and services.